Tracking 27380 objects as of 6-Jun-2023
HD Live streaming from Space Station
objects crossing your sky now

OPS 4682 DEB

Track OPS 4682 DEB now!
10-day predictions


NORAD ID: 38417
Int'l Code: 1965-027DW
Perigee: 1,259.2 km
Apogee: 1,311.2 km
Inclination: 90.2 °
Period: 111.1 minutes
Semi major axis: 7656 km
RCS: 0.012 m2 (small)
Launch date: April 3, 1965
Source: United States (US)
Launch site: AIR FORCE WESTERN TEST RANGE (AFWTR)

Note: This is SATELLITE DEBRIS
Your satellite tracking list
Your tracking list is empty




NASA's NSSDC Master Catalog

Two Line Element Set (TLE):
1 38417U 65027DW  23154.97283037  .00000441  00000-0  15221-2 0  9999
2 38417  90.2484 347.3206 0033985 175.0337 185.1126 12.95930093462974
Source of the keplerian elements: AFSPC